RH
66 56 44 26 23 18 15 11 12 15 11 11 31 72 77 91 97 94 95 83 90 93 99 93 91 82 82 92 96 95 87 94 91 83 82 87 93 74 51 38 37 30 30 31
52 65 60 50 34 23 19 16 11 14 16 11 13 34 68 70 83 96 97 88 89 95 94 97 94 88 97 97 96 96 93 94 95 92 90 82 88 78 54 38 32 30 30 30
37 63 67 61 49 44 32 22 18 12 16 16 12 15 37 70 60 68 96 96 91 79 94 93 98 93 90 94 84 89 95 96 96 96 96 98 95 70 45 31 28 29 32 32
44 53 57 60 61 58 49 29 22 20 13 16 14 10 16 34 53 50 58 97 100 90 67 80 83 88 94 97 97 97 96 100 95 96 92 85 72 53 31 30 33 34 34 34
42 51 48 47 39 46 60 59 36 26 18 15 17 14 10 18 34 48 59 73 97 96 97 82 84 94 96 94 97 97 91 97 86 74 57 63 64 40 32 34 35 35 36 35
46 45 51 51 49 42 46 46 37 33 28 21 18 16 11 10 23 36 47 66 77 94 97 98 96 96 96 95 96 90 91 84 74 69 81 43 35 33 36 40 39 38 36 35
46 49 50 50 47 47 39 41 38 33 30 17 21 19 10 11 10 25 41 56 71 94 91 93 79 76 68 67 76 93 95 77 63 59 38 33 35 43 44 42 40 38 36 34
63 68 58 53 48 56 46 41 32 30 23 21 23 18 12 10 10 12 28 44 53 84 95 83 68 58 66 80 57 64 68 72 48 37 36 41 47 46 44 42 39 36 34 31
42 48 63 75 66 60 61 50 46 34 26 26 23 16 14 10 10 10 14 28 35 44 94 86 59 46 43 41 42 43 43 41 40 42 46 46 47 46 44 40 37 34 31 30
55 47 41 52 62 66 69 62 57 46 39 27 24 18 13 11 10 9 10 14 19 31 26 23 29 29 35 39 41 43 44 45 45 44 45 47 46 42 38 36 33 30 30 32
52 53 44 38 43 50 52 53 57 62 50 40 23 21 18 12 10 9 10 9 11 14 17 19 20 23 28 35 41 43 44 44 43 46 46 43 40 37 34 30 28 31 33 29
55 54 54 51 49 39 40 49 45 49 54 49 35 27 20 15 12 10 10 9 10 9 11 15 18 22 28 34 36 38 40 42 43 42 41 38 35 31 27 30 33 31 30 30
100 79 52 57 55 54 50 38 51 45 46 45 39 45 46 23 15 13 12 10 9 9 10 12 16 20 26 31 34 36 38 38 37 36 35 31 28 30 34 32 31 30 31 32
99 100 98 54 52 52 55 52 42 40 34 37 28 51 69 77 48 18 11 10 9 9 9 10 11 14 16 21 26 31 34 35 33 28 27 30 33 33 32 32 32 34 39 46
95 94 99 100 89 60 51 52 50 48 50 32 45 37 96 84 62 41 28 19 13 11 11 12 15 18 22 27 31 31 28 23 23 28 32 33 32 32 33 34 40 52 72 87
84 83 82 100 96 96 87 51 45 41 45 32 39 28 42 65 73 66 52 42 40 31 24 27 32 35 32 27 22 21 24 28 32 33 32 32 34 35 45 63 82 92 98 98
84 68 71 84 93 97 97 96 69 44 41 37 33 42 28 21 22 25 28 30 29 29 26 22 20 20 23 26 28 30 31 31 31 32 34 41 58 74 87 97 99 100 100 100
95 86 67 70 78 76 88 99 91 94 77 46 36 33 33 29 23 22 22 23 22 22 22 22 23 26 28 28 30 31 32 33 42 58 77 88 96 99 99 100 100 100 100 100
97 98 85 75 67 70 83 84 92 94 84 82 80 58 37 32 30 30 28 29 29 29 29 30 30 30 33 37 44 56 71 82 93 98 98 98 99 100 100 100 100 100 100 100
91 91 100 95 78 64 94 95 81 82 89 84 78 75 76 72 70 65 60 60 62 65 66 67 70 73 77 82 86 90 92 92 92 97 100 100 100 100 100 100 100 100 100 100
92 88 84 100 95 75 95 83 72 71 66 68 71 73 72 70 66 66 65 64 64 64 64 66 69 72 76 79 81 85 91 96 98 94 85 81 88 90 91 94 91 99 95 82
90 93 95 88 94 92 92 97 90 74 68 62 58 57 55 54 53 52 52 53 55 57 57 60 64 68 70 73 75 75 73 70 68 69 71 69 70 76 85 95 95 87 86 65
75 94 98 97 93 99 98 95 86 82 82 76 73 71 72 73 70 66 62 61 60 59 59 59 62 66 70 73 76 77 77 78 76 71 70 71 74 84 92 91 89 61 48 43
72 83 89 95 98 99 96 89 85 78 66 61 63 64 71 74 72 75 78 81 81 85 86 88 91 91 90 88 87 85 84 82 83 88 93 98 100 96 85 68 63 60 40 36
63 74 94 94 99 96 89 88 80 71 66 65 66 67 69 71 76 77 76 80 92 100 100 100 100 100 100 100 100 100 100 100 100 100 100 98 90 83 82 76 51 44 38 31
59 85 100 96 100 91 84 91 85 74 68 62 56 55 60 72 78 79 80 88 100 100 100 100 100 100 100 100 100 97 94 94 98 99 94 92 89 77 58 51 49 43 35 31
Wind_Speed
4 9 17 27 31 34 36 35 41 50 51 57 59 63 60 62 49 52 50 46 46 41 39 38 40 40 38 34 35 34 33 33 32 31 28 27 27 31 32 30 28 27 27 27
5 3 10 15 23 31 36 37 36 41 50 53 59 62 64 61 63 43 55 56 47 46 45 43 45 43 40 38 39 40 34 35 37 37 29 27 30 33 33 31 31 31 31 31
6 6 6 12 17 22 28 34 38 38 47 52 54 60 63 64 62 64 49 54 52 52 50 48 49 52 43 41 35 40 38 43 44 39 31 27 30 33 33 33 33 34 34 35
5 5 1 4 14 18 23 30 36 40 41 50 52 58 61 61 62 60 49 54 52 52 52 50 53 53 40 37 31 39 40 43 40 27 26 28 32 35 36 36 36 37 37 38
4 2 1 2 7 13 19 23 32 37 39 42 50 54 56 58 61 60 58 50 49 52 47 48 39 38 42 46 49 40 22 29 30 34 34 36 35 36 38 39 39 39 40 41
4 2 1 1 1 8 15 19 23 29 32 40 43 51 53 55 56 57 55 55 51 50 47 49 47 43 43 38 43 26 25 22 31 33 38 39 38 39 41 42 42 41 43 44
6 4 3 2 2 4 10 15 21 25 29 34 37 47 51 48 53 54 55 53 49 52 50 44 35 35 34 32 31 32 25 26 35 39 40 40 40 41 43 45 44 44 45 47
12 7 5 5 3 5 7 13 19 22 23 27 33 42 46 43 47 51 53 52 46 44 43 39 40 38 37 37 34 34 35 39 39 40 42 42 43 43 46 46 47 47 48 50
14 13 8 3 4 5 7 12 17 22 25 28 30 33 38 40 42 45 47 49 46 41 40 41 42 42 41 39 37 38 41 42 41 41 43 45 46 46 48 49 49 50 51 53
14 12 11 9 4 3 7 10 16 20 26 29 29 30 32 32 36 39 43 45 44 42 39 40 42 43 41 41 41 42 44 43 44 46 47 49 48 49 50 51 51 53 54 55
12 11 9 8 9 10 8 10 15 18 22 26 29 29 30 29 34 36 39 40 41 42 42 41 42 43 43 43 44 46 48 50 50 50 50 51 50 50 52 53 54 55 55 56
13 10 9 7 8 9 13 13 14 17 19 22 22 25 25 29 29 32 33 36 35 38 40 42 42 43 45 48 50 50 51 52 51 51 51 50 51 52 53 55 55 56 58 59
16 13 9 10 9 8 8 13 17 15 17 21 23 18 21 24 29 30 32 34 35 38 39 41 43 45 47 49 50 51 51 51 50 49 49 50 52 53 54 55 57 59 61 62
23 16 14 10 10 11 10 11 12 17 15 14 18 20 20 23 26 31 34 35 37 38 40 42 45 47 49 50 51 51 50 48 48 48 50 52 53 54 56 58 60 61 62 64
21 21 17 16 12 9 10 13 14 9 9 14 11 21 24 26 28 30 32 34 37 39 40 42 44 45 47 48 47 46 46 46 49 50 51 53 55 57 59 60 62 64 65 66
20 20 17 18 19 10 7 14 14 8 9 9 14 18 24 31 31 30 31 33 34 37 39 39 39 39 40 41 43 46 48 49 50 52 54 56 58 59 61 63 64 66 67 67
23 21 20 14 17 17 11 12 14 13 11 9 10 15 22 23 24 26 28 30 33 35 35 36 38 40 42 43 45 47 48 50 52 54 56 58 60 62 63 65 65 66 67 69
25 23 21 19 19 19 17 14 12 13 16 15 14 17 20 23 23 24 27 30 32 33 35 37 38 40 42 45 47 49 51 53 55 56 58 60 63 64 65 65 66 69 68 67
31 26 25 24 22 19 21 19 20 17 18 19 19 20 22 24 24 27 28 29 32 34 37 39 41 44 46 48 50 52 54 55 57 59 61 62 64 65 66 67 67 65 66 67
34 34 27 26 27 22 21 23 24 26 24 24 23 24 25 26 27 29 31 33 35 38 40 43 45 47 49 51 53 55 57 58 59 60 62 63 64 64 63 63 64 66 66 68
34 34 34 29 28 23 23 24 27 26 27 29 30 30 30 31 32 34 36 38 40 42 45 47 48 51 52 54 56 57 58 58 59 60 61 62 62 63 64 65 67 67 69 68
34 34 33 35 30 21 21 25 26 29 30 30 30 30 31 32 33 34 36 38 40 42 43 45 46 47 49 50 52 54 56 58 61 62 63 63 64 65 66 65 65 64 63 63
37 34 34 33 31 25 30 31 32 32 34 35 34 33 34 36 38 39 40 41 43 45 47 48 50 51 52 53 55 57 58 60 62 63 63 64 66 65 63 62 60 59 62 66
40 39 39 37 31 36 35 38 40 40 39 38 39 40 41 42 42 42 43 44 46 47 47 49 49 50 52 52 53 55 57 59 60 61 61 60 59 58 58 57 59 63 67 67
47 46 42 44 38 40 41 41 42 46 47 46 45 44 44 46 47 48 49 50 51 51 51 51 50 50 51 52 54 55 57 58 59 58 57 57 55 56 58 61 64 66 66 68
49 45 48 47 41 47 47 46 48 47 48 50 50 48 46 47 49 49 50 51 51 51 53 53 52 51 52 53 55 56 57 57 57 56 55 56 57 57 61 63 64 66 67 69
Wind_Direction
298 234 223 217 217 216 219 217 217 217 219 220 218 223 225 225 229 222 205 206 214 218 227 237 228 221 223 229 236 242 255 261 255 257 261 273 287 293 297 302 306 305 305 305
351 267 222 221 228 223 221 220 218 219 219 221 221 221 223 228 229 228 222 209 209 217 224 229 230 224 230 239 244 250 260 262 256 258 258 270 281 290 296 301 303 301 301 302
344 343 245 230 235 235 233 223 221 220 220 221 222 224 225 225 229 234 231 226 214 221 224 231 233 231 231 249 257 250 257 265 258 262 260 270 282 289 295 297 297 297 298 300
4 2 24 251 233 235 237 229 222 222 223 224 224 226 226 226 227 234 237 233 225 226 227 231 237 243 250 244 240 243 256 250 254 259 273 279 284 289 293 294 294 295 297 298
15 13 324 244 234 229 225 222 223 221 225 226 226 230 224 226 228 231 236 232 227 229 237 243 237 237 238 249 249 241 254 254 256 268 274 281 284 287 289 290 291 293 295 296
17 16 32 24 195 215 212 207 216 223 223 228 229 232 226 227 228 231 236 240 240 244 231 234 236 240 248 264 256 280 259 255 258 265 271 275 281 284 287 288 291 293 294 295
360 354 335 313 294 231 206 204 213 219 224 228 230 233 229 228 229 231 236 240 244 244 250 248 251 251 257 253 262 267 268 260 259 266 271 277 281 283 285 287 290 292 293 293
18 358 318 296 278 265 250 218 216 223 228 231 231 232 230 228 231 234 235 238 241 246 240 245 249 249 249 250 255 257 257 259 264 270 275 276 278 281 284 287 289 290 290 291
19 13 2 327 280 257 250 247 236 231 229 230 230 232 231 226 231 233 237 241 243 241 242 241 246 247 244 248 253 258 261 265 268 269 273 276 278 282 285 286 287 288 287 286
12 7 354 335 299 245 241 238 242 240 236 237 230 225 227 224 228 231 233 238 242 242 240 238 239 244 247 250 254 258 261 264 267 271 273 276 280 282 283 285 286 285 284 285
7 6 7 343 322 300 260 246 244 246 243 241 231 225 221 215 222 226 229 233 236 237 238 237 239 242 246 250 253 256 260 265 268 271 274 277 279 280 282 283 282 282 285 287
343 345 344 341 333 315 303 273 256 252 246 239 234 222 224 217 216 222 225 229 230 233 236 238 240 242 245 249 253 257 260 264 268 271 273 276 279 280 279 280 283 285 286 287
329 330 322 315 320 318 297 286 262 244 245 235 231 201 211 209 211 217 222 225 230 233 235 239 242 244 247 250 254 259 263 267 270 274 276 277 276 277 281 283 284 285 287 289
341 324 317 309 301 298 295 292 282 261 247 243 231 197 207 209 211 216 221 224 228 233 237 239 242 245 249 253 257 262 265 270 274 275 274 276 279 281 282 284 286 287 287 288
323 325 324 302 300 305 285 285 291 294 260 244 207 214 206 217 218 219 223 229 232 234 238 242 247 250 253 257 262 267 271 272 272 273 276 278 279 282 283 284 285 287 289 291
312 313 317 314 299 312 290 279 282 278 264 245 232 207 217 229 228 225 227 232 238 242 245 248 251 258 264 267 267 267 268 270 273 275 277 279 280 282 283 285 287 289 290 290
305 303 305 299 294 303 295 275 277 275 256 239 237 206 224 234 242 245 247 248 250 253 258 260 261 261 262 264 266 268 270 272 274 276 278 279 281 282 284 287 288 288 289 290
305 296 296 295 287 286 291 281 271 268 264 257 237 227 235 240 243 241 242 246 250 253 255 258 262 264 266 268 269 271 272 273 275 277 279 281 283 285 287 287 288 291 293 293
306 294 292 292 285 283 283 274 274 266 270 269 259 250 243 241 244 247 250 251 252 254 257 259 261 264 266 267 269 271 274 277 279 280 283 285 286 287 288 290 292 292 293 294
299 294 290 286 287 287 291 273 266 268 262 262 265 266 263 260 258 258 259 261 262 263 264 266 268 270 273 274 276 277 278 279 280 281 282 283 285 287 289 290 292 292 293 294
292 286 287 287 282 287 280 274 270 268 267 265 263 263 262 261 261 263 264 265 265 265 267 268 269 271 273 274 275 277 278 279 280 281 283 286 288 289 290 291 291 292 292 296
286 283 284 276 279 284 277 271 267 268 269 268 268 270 271 270 270 269 269 269 270 271 272 272 272 273 274 275 277 279 281 282 283 285 286 286 286 286 287 288 291 294 298 301
279 279 278 275 276 278 278 274 273 273 272 272 272 272 272 271 270 269 270 271 270 269 269 270 271 273 274 275 277 279 280 281 282 283 284 285 285 286 289 292 296 298 302 303
281 276 273 272 280 281 280 275 278 279 278 278 279 280 279 277 275 276 277 277 276 274 273 273 273 273 274 276 278 279 280 281 282 283 284 285 288 291 294 296 299 301 301 301
281 281 279 276 282 278 277 275 276 280 283 284 282 279 277 277 276 276 276 276 276 275 275 275 276 278 280 282 283 283 283 284 285 286 287 289 291 294 296 297 297 298 299 300
283 278 276 280 279 278 278 275 273 275 277 279 281 282 281 280 278 278 278 278 278 277 276 277 279 282 284 284 284 285 286 286 285 286 289 292 294 295 295 296 296 297 299 302